RH
60 61 68 69 76 86 94 85 93 74 86 87 91 93 93 92 92 93 93 92 92 91 90 89 89 88 88 87 80 72 69 67 65 62 60 54 49 48 45 43 41 42 44 49
76 76 80 76 79 86 84 81 81 76 75 82 86 88 88 89 91 91 91 92 91 91 90 87 85 83 80 82 78 65 62 56 53 48 42 40 39 36 33 30 28 27 27 27
72 72 78 73 68 64 64 69 69 74 73 77 74 80 86 89 88 90 91 92 91 85 82 80 80 81 79 76 63 56 52 51 43 36 32 28 24 22 21 20 20 20 21 22
64 67 70 53 58 59 61 66 72 78 85 79 84 93 92 93 92 93 93 89 85 80 77 77 75 72 74 64 57 48 41 36 33 28 23 20 20 21 21 21 22 23 25 28
66 64 52 61 62 68 69 75 79 89 89 94 97 97 97 95 89 83 83 84 81 79 77 75 69 66 57 49 43 37 34 30 26 24 23 23 23 23 23 25 28 31 36 40
68 73 73 61 67 72 82 82 87 91 92 91 97 97 95 91 81 81 83 80 75 70 67 66 58 49 43 39 36 34 31 29 28 27 26 26 26 26 28 33 37 41 46 50
65 68 74 75 86 86 87 85 86 85 85 84 89 81 81 77 80 76 69 67 67 61 56 54 47 41 40 38 36 34 32 33 32 31 31 31 29 31 36 41 46 51 53 55
61 69 62 73 79 82 80 80 76 84 82 80 76 73 72 74 73 71 65 62 59 59 55 49 45 43 41 38 36 36 37 37 37 36 36 35 34 37 42 48 54 57 58 61
59 58 64 69 75 77 75 78 86 85 87 81 78 76 76 76 75 71 68 62 58 54 54 52 47 44 42 42 41 40 41 42 41 41 40 40 40 43 48 55 61 63 65 67
47 43 52 62 65 67 72 76 84 84 81 80 77 75 75 74 72 69 67 61 56 56 56 57 53 50 45 43 43 43 44 45 45 44 43 44 45 48 53 61 68 69 71 76
47 51 67 71 72 79 77 76 87 83 79 74 70 68 66 65 64 64 61 58 58 58 60 59 56 54 51 48 48 48 48 49 49 48 47 48 51 53 58 67 75 77 79 80
49 57 68 78 87 85 90 88 86 78 73 68 64 62 63 61 60 60 62 64 66 66 63 61 60 59 55 53 52 52 52 53 54 54 54 56 57 55 64 70 79 83 83 85
54 67 78 86 91 92 91 87 82 78 74 68 66 62 59 59 61 64 64 64 65 65 65 64 64 64 60 59 57 57 57 57 57 59 59 61 62 62 62 71 83 85 85 84
53 71 77 84 89 89 85 85 83 77 67 64 62 62 62 62 60 62 61 62 64 64 63 61 62 62 60 60 60 60 61 63 62 62 65 67 67 67 68 72 79 84 87 85
58 70 73 80 85 89 89 84 80 73 70 67 67 68 68 63 60 58 54 53 55 59 63 64 65 65 65 65 67 69 68 67 66 68 70 69 72 72 71 75 82 86 86 86
70 78 85 91 98 98 92 92 89 78 75 78 79 74 66 62 60 54 46 45 46 50 52 54 57 59 60 62 64 67 68 69 69 71 74 74 75 74 73 76 85 90 92 91
75 80 95 99 96 98 97 95 95 96 90 85 83 77 68 65 59 48 42 40 40 40 40 41 42 45 46 49 55 60 63 67 75 81 80 78 79 78 76 77 86 94 95 95
79 87 92 98 98 98 97 98 98 96 92 89 83 72 70 65 56 50 44 42 45 43 40 39 39 40 42 42 44 45 49 59 69 78 83 83 84 84 80 79 86 95 97 96
81 90 95 98 98 98 98 98 97 96 95 91 86 76 72 62 58 56 54 53 48 45 45 43 41 41 39 39 39 39 44 49 55 63 69 78 86 88 84 80 83 94 98 97
86 93 96 97 96 94 90 88 87 87 88 86 81 74 73 71 70 69 64 59 58 52 49 49 51 49 46 43 42 40 41 45 49 57 63 68 79 88 90 85 84 93 99 98
95 95 94 93 93 93 92 93 94 95 96 98 96 93 89 85 82 77 74 72 75 71 68 60 57 53 44 45 48 47 43 42 43 48 56 65 75 85 90 87 86 93 99 98
98 98 94 94 94 94 94 95 97 99 98 98 96 97 97 95 92 89 86 82 79 82 80 74 70 62 62 61 54 52 45 42 42 44 50 65 75 82 91 90 88 94 99 99
99 99 99 99 99 99 99 99 99 99 100 100 99 99 97 94 92 88 86 85 83 81 83 80 76 69 69 64 55 51 49 48 48 52 56 68 78 82 89 91 90 94 99 99
99 99 99 99 98 97 97 97 98 98 99 99 98 98 97 95 92 90 85 82 79 80 78 74 71 67 69 62 60 59 57 57 58 59 64 70 82 85 88 92 91 96 99 99
100 100 100 100 100 100 99 98 100 100 99 98 96 95 93 91 86 81 77 73 71 72 67 66 68 67 66 66 66 68 68 70 71 68 68 77 87 88 91 95 94 98 99 99
98 98 96 98 99 98 97 98 98 96 95 90 90 89 88 84 80 75 72 69 67 68 64 62 62 63 67 70 73 77 79 80 81 75 73 84 92 93 95 98 96 99 99 99
88 94 96 96 96 94 93 93 93 90 89 86 86 83 79 72 72 70 68 68 69 68 67 68 70 72 75 78 80 83 86 87 85 78 78 90 96 96 98 99 99 99 99 98